sat.trackr.live / text

‹ back to catalog

STARLINK-5158

NORAD 54055 · 2022-136E

PAYLOAD ACTIVE UNKNOWN

§ Identity

Operator
Country
US
Launch date
2022-10-20
Launch site
AFETR
Launch vehicle
Mass (kg)
RCS (m²)

Purposes: comms

External: N2YO · Heavens-Above · Gunter

§ Orbital elements

Epoch: 2026-05-25T00:16:55.816032Z

Period
95.44 min
Inclination
53.2155°
Eccentricity
0.0001856
Mean motion
15.08868348 rev/d
Perigee alt
538.4 km
Apogee alt
540.9 km
Semi-major
6,917.8 km
B*
-3.0930e-4
RAAN
1.6663°
Arg perigee
97.3591°
Mean anomaly
262.7612°
Rev number
19,836

§ Raw data

STARLINK-51581 54055U 22136E   26145.01175713 -.00005211  00000+0 -30930-3 0  99942 54055  53.2155   1.6663 0001856  97.3591 262.7612 15.08868348198362

JSON: /api/v1/satellites/54055 · /tle

For live sub-satellite position, see the globe view (requires WebGL).

§ Visibility from observer

Set your observer location to see the next 7 days of passes ≥ 10°. The values pass through the URL so the page stays shareable.

No JS? Fill the form by hand. The geolocation button needs JavaScript.